Weather History for KTOP - February, 2012

Change the Weather History Date:

Tuesday, February 7, 2012

  Actual Average Record
Temperature  
Mean Temperature 39 °F 32 °F  
Max Temperature 43 °F 43 °F 71 °F (2009)
Min Temperature 34 °F 22 °F -14 °F (1895)
Degree Days  
Heating Degree Days 26 33  
Month to date heating degree days 158 235  
Since 1 July heating degree days 2820 3345  
Cooling Degree Days 0 0  
Month to date cooling degree days 0 0  
Year to date cooling degree days 0 0  
Moisture  
Dew Point 31 °F    
Average Humidity 80    
Maximum Humidity 89    
Minimum Humidity 70    
Precipitation  
Precipitation T in 0.05 in 0.53 in (2013)
Month to date precipitation 1.36 0.29  
Year to date precipitation 1.38 1.15  
Snow  
Snow T in 0.20 in 5.10 in (1980)
Month to date snowfall T 1.3  
Year to date snowfall 0.1 6.2  
Since 1 July snowfall 0.2 12.7  
Snow Depth 0.00 in    
Sea Level Pressure  
Sea Level Pressure 30.36 in    
Wind  
Wind Speed 7 mph (North)    
Max Wind Speed 15 mph    
Max Gust Speed 18 mph    
Visibility 7 miles    
Events Snow    
T = Trace of Precipitation, MM = Missing Value Source: NWS Daily Summary

Daily Weather History Graph

Daily Weather History Graph

Search for Another Location

Airport or City:

Trip Planner

Search our weather history database for the weather conditions in past years. The results will help you decide how hot, cold, wet, or windy it might be!

Date:

Astronomy

Feb. 07, 2012 Rise Set
Actual Time 7:23 AM CST 5:50 PM CST
Civil Twilight 6:55 AM CST 6:17 PM CST
Nautical Twilight 6:24 AM CST 6:49 PM CST
Astronomical Twilight 5:52 AM CST 7:20 PM CST
Moon 6:01 PM CST (2/7) 6:53 AM CST (2/7)
Length of Visible Light 11h 22m
Length of Day
10h 26m
Full, 100% of the Moon is Illuminated
Feb 7
Full
Feb 7
Full
Feb 14
Last Quarter
Feb 21
New
Feb 29
First Quarter

Hourly Weather History & Observations

Time (CST) Temp. Windchill Dew Point Humidity Pressure Visibility Wind Dir Wind Speed Gust Speed Precip Events Conditions
12:53 AM 35.1 °F - 30.9 °F 85% 30.24 in 10.0 mi Calm Calm - N/A   Clear
1:53 AM 36.0 °F - 30.9 °F 82% 30.23 in 10.0 mi Calm Calm - N/A   Overcast
2:53 AM 36.0 °F - 32.0 °F 86% 30.24 in 10.0 mi Calm Calm - N/A   Overcast
3:53 AM 37.0 °F - 33.1 °F 86% 30.25 in 10.0 mi Calm Calm - N/A   Overcast
4:53 AM 37.0 °F - 34.0 °F 89% 30.24 in 10.0 mi Calm Calm - N/A   Overcast
5:53 AM 42.1 °F 38.4 °F 33.1 °F 70% 30.23 in 10.0 mi North 5.8 mph - 0.00 in   Overcast
6:53 AM 39.9 °F 37.8 °F 34.0 °F 79% 30.26 in 10.0 mi NNW 3.5 mph - N/A   Overcast
7:53 AM 37.9 °F 30.5 °F 30.0 °F 73% 30.30 in 10.0 mi North 11.5 mph - N/A   Overcast
8:53 AM 37.0 °F 31.0 °F 30.9 °F 79% 30.33 in 5.0 mi North 8.1 mph - 0.00 in   Overcast
9:53 AM 37.0 °F 31.6 °F 30.9 °F 79% 30.35 in 5.0 mi NNW 6.9 mph - 0.00 in   Haze
10:11 AM 37.4 °F 32.1 °F 30.2 °F 75% 30.34 in 5.0 mi NNW 6.9 mph - N/A   Haze
10:53 AM 36.0 °F 29.0 °F 30.0 °F 79% 30.37 in 5.0 mi NNW 9.2 mph - N/A   Haze
11:53 AM 37.0 °F 29.8 °F 30.0 °F 76% 30.38 in 4.0 mi NNW 10.4 mph - N/A   Haze
12:53 PM 37.9 °F 30.5 °F 30.9 °F 76% 30.36 in 6.0 mi NNW 11.5 mph - N/A   Haze
1:53 PM 37.0 °F 30.4 °F 30.9 °F 79% 30.36 in 9.0 mi North 9.2 mph - N/A   Overcast
2:53 PM 37.0 °F 29.3 °F 30.9 °F 79% 30.36 in 8.0 mi North 11.5 mph - N/A   Overcast
3:53 PM 37.0 °F 29.3 °F 32.0 °F 82% 30.38 in 6.0 mi NNW 11.5 mph - N/A   Haze
4:53 PM 37.0 °F 30.4 °F 32.0 °F 82% 30.38 in 4.0 mi North 9.2 mph - N/A   Haze
5:53 PM 36.0 °F 28.5 °F 32.0 °F 86% 30.40 in 5.0 mi NNW 10.4 mph - N/A   Overcast
6:53 PM 36.0 °F 28.0 °F 32.0 °F 86% 30.41 in 6.0 mi North 11.5 mph 18.4 mph N/A   Overcast
7:21 PM 35.6 °F 28.6 °F 32.0 °F 87% 30.40 in 6.0 mi North 9.2 mph - N/A   Overcast
7:35 PM 35.6 °F 28.6 °F 32.0 °F 87% 30.41 in 6.0 mi North 9.2 mph - N/A   Overcast
7:43 PM 35.6 °F 30.7 °F 32.0 °F 87% 30.41 in 6.0 mi North 5.8 mph - N/A   Overcast
7:53 PM 36.0 °F 29.6 °F 30.9 °F 82% 30.43 in 6.0 mi North 8.1 mph - N/A   Haze
8:53 PM 35.1 °F 29.3 °F 30.9 °F 85% 30.45 in 5.0 mi North 6.9 mph - 0.00 in Snow Light Snow
9:03 PM 35.6 °F 29.9 °F 32.0 °F 87% 30.44 in 4.0 mi NNW 6.9 mph - 0.00 in Snow Light Snow
9:53 PM 35.1 °F 27.4 °F 30.9 °F 85% 30.48 in 7.0 mi North 10.4 mph - 0.00 in   Overcast
10:53 PM 34.0 °F 26.0 °F 30.9 °F 89% 30.49 in 10.0 mi North 10.4 mph - N/A   Overcast
11:53 PM 34.0 °F 27.2 °F 30.9 °F 89% 30.50 in 10.0 mi North 8.1 mph - N/A   Overcast